Tinley Park, Illinois, United States (60477)
Lat: 41.57N, Lon: 87.78W
Wx Zone: ILZ014
Local Info
Past Weather Observations for Today

NOTE: This archive is for the closest National Weather Service station to Tinley Park. Information may differ from the station used for current weather conditions.

Time Weather Temperature Dewpoint Humidity Pressure Winds Precip Visibility
22:55
Clear
39°F / 4°C 27°F / -3°C 61% 30.36 in
(1028 mb)
NE 11.5 mph
(NE 19 kph)
- 10SM
22:35
Clear
37°F / 3°C 28°F / -2°C 70% 30.36 in
(1028 mb)
NE 5.8 mph
(NE 9 kph)
- 10SM
22:15
Clear
37°F / 3°C 28°F / -2°C 70% 30.36 in
(1028 mb)
NE 5.8 mph
(NE 9 kph)
- 10SM
21:55
Clear
37°F / 3°C 28°F / -2°C 70% 30.36 in
(1028 mb)
NE 5.8 mph
(NE 9 kph)
- 10SM
21:35
Clear
39°F / 4°C 28°F / -2°C 65% 30.36 in
(1028 mb)
NE 9.2 mph
(NE 15 kph)
- 10SM
21:15
Clear
37°F / 3°C 28°F / -2°C 70% 30.36 in
(1028 mb)
NE 8.1 mph
(NE 13 kph)
- 10SM
20:55
Clear
37°F / 3°C 28°F / -2°C 70% 30.36 in
(1028 mb)
NE 9.2 mph
(NE 15 kph)
- 10SM
20:35
Clear
37°F / 3°C 30°F / -1°C 75% 30.36 in
(1028 mb)
NE 9.2 mph
(NE 15 kph)
- 10SM
20:15
Clear
37°F / 3°C 30°F / -1°C 75% 30.36 in
(1028 mb)
NE 9.2 mph
(NE 15 kph)
- 10SM
19:55
Clear
37°F / 3°C 30°F / -1°C 75% 30.36 in
(1028 mb)
NE 12.7 mph
(NE 20 kph)
- 10SM
19:35
Clear
37°F / 3°C 30°F / -1°C 75% 30.36 in
(1028 mb)
NE 9.2 mph
(NE 15 kph)
- 10SM
19:15
Clear
37°F / 3°C 30°F / -1°C 75% 30.36 in
(1028 mb)
NE 8.1 mph
(NE 13 kph)
- 10SM
18:55
Clear
37°F / 3°C 32°F / 0°C 81% 30.33 in
(1027 mb)
NE 12.7 mph
(NE 20 kph)
- 10SM
18:35
Clear
39°F / 4°C 32°F / 0°C 75% 30.33 in
(1027 mb)
NE 12.7 mph
(NE 20 kph)
- 10SM
18:15
Clear
39°F / 4°C 32°F / 0°C 75% 30.33 in
(1027 mb)
NE 12.7 mph
(NE 20 kph)
- 10SM
17:55
Clear
39°F / 4°C 32°F / 0°C 75% 30.33 in
(1027 mb)
NE 12.7 mph
(NE 20 kph)
- 10SM
17:35
Clear
41°F / 5°C 32°F / 0°C 70% 30.33 in
(1027 mb)
NE 13.8 mph
(NE 22 kph)
- 10SM
17:15
Clear
43°F / 6°C 32°F / 0°C 66% 30.33 in
(1027 mb)
NE 12.7 mph
(NE 20 kph)
- 10SM
16:55
Clear
45°F / 7°C 34°F / 1°C 66% 30.33 in
(1027 mb)
NE 11.5 mph
(NE 19 kph)
- 10SM
16:35
Clear
45°F / 7°C 34°F / 1°C 66% 30.33 in
(1027 mb)
NE 10.4 mph
(NE 17 kph)
- 10SM
16:15
Clear
45°F / 7°C 34°F / 1°C 66% 30.33 in
(1027 mb)
NE 12.7 mph
(NE 20 kph)
- 10SM
15:55
Clear
45°F / 7°C 34°F / 1°C 66% 30.33 in
(1027 mb)
NE 16.1 mph
(NE 26 kph)
- 10SM
15:35
Clear
45°F / 7°C 34°F / 1°C 66% 30.33 in
(1027 mb)
NE 15 mph
(NE 24 kph)
- 10SM
15:15
Clear
46°F / 8°C 34°F / 1°C 62% 30.33 in
(1027 mb)
NE 13.8 mph
(NE 22 kph)
- 10SM
14:55
Clear
46°F / 8°C 34°F / 1°C 62% 30.33 in
(1027 mb)
NE 11.5 mph
(NE 19 kph)
- 10SM
14:35
Clear
48°F / 9°C 36°F / 2°C 62% 30.33 in
(1027 mb)
ENE 11.5 mph
(ENE 19 kph)
- 10SM
14:15
Clear
50°F / 10°C 36°F / 2°C 58% 30.33 in
(1027 mb)
NE 5.8 mph
(NE 9 kph)
- 10SM
13:55
Clear
48°F / 9°C 36°F / 2°C 62% 30.33 in
(1027 mb)
NE 9.2 mph
(NE 15 kph)
- 10SM
13:35
Clear
50°F / 10°C 36°F / 2°C 58% 30.36 in
(1028 mb)
NE 9.2 mph
(NE 15 kph)
- 10SM
13:15
Clear
48°F / 9°C 36°F / 2°C 62% 30.36 in
(1028 mb)
N 4.6 mph
(N 7 kph)
- 10SM
12:55
Clear
48°F / 9°C 36°F / 2°C 62% 30.36 in
(1028 mb)
N 10.4 mph
(N 17 kph)
- 10SM
12:35
Clear
48°F / 9°C 36°F / 2°C 62% 30.36 in
(1028 mb)
NE 12.7 mph
(NE 20 kph)
- 10SM
12:15
Clear
48°F / 9°C 36°F / 2°C 62% 30.36 in
(1028 mb)
N 10.4 mph
(N 17 kph)
- 10SM
11:55
Clear
48°F / 9°C 36°F / 2°C 62% 30.36 in
(1028 mb)
N 12.7 mph
(N 20 kph)
- 10SM
11:35
Clear
46°F / 8°C 34°F / 1°C 62% 30.36 in
(1028 mb)
NE 11.5 mph
(NE 19 kph)
- 10SM
11:15
Clear
46°F / 8°C 36°F / 2°C 66% 30.36 in
(1028 mb)
NE 10.4 mph
(NE 17 kph)
- 10SM
10:55
Clear
46°F / 8°C 36°F / 2°C 66% 30.36 in
(1028 mb)
NNE 5.8 mph
(NNE 9 kph)
- 10SM
10:35
Clear
46°F / 8°C 36°F / 2°C 66% 30.36 in
(1028 mb)
NE 3.5 mph
(NE 6 kph)
- 10SM
10:15
Clear
46°F / 8°C 36°F / 2°C 66% 30.36 in
(1028 mb)
NE 5.8 mph
(NE 9 kph)
- 10SM
09:55
Clear
46°F / 8°C 36°F / 2°C 66% 30.33 in
(1027 mb)
N 11.5 mph
(N 19 kph)
- 10SM
09:35
Clear
46°F / 8°C 36°F / 2°C 66% 30.33 in
(1027 mb)
NNE 10.4 mph
(NNE 17 kph)
- 10SM
09:15
Clear
46°F / 8°C 36°F / 2°C 66% 30.33 in
(1027 mb)
NE 8.1 mph
(NE 13 kph)
- 10SM
08:55
Clear
46°F / 8°C 37°F / 3°C 71% 30.33 in
(1027 mb)
N 10.4 mph
(N 17 kph)
- 10SM
08:35
Clear
46°F / 8°C 37°F / 3°C 71% 30.33 in
(1027 mb)
NE 10.4 mph
(NE 17 kph)
- 10SM
08:15
Clear
46°F / 8°C 37°F / 3°C 71% 30.33 in
(1027 mb)
NNE 9.2 mph
(NNE 15 kph)
- 7SM
07:55
Clear
45°F / 7°C 37°F / 3°C 76% 30.33 in
(1027 mb)
NNE 9.2 mph
(NNE 15 kph)
- 7SM
07:35
Clear
45°F / 7°C 37°F / 3°C 76% 30.33 in
(1027 mb)
N 8.1 mph
(N 13 kph)
- 7SM
07:15
Clear
45°F / 7°C 37°F / 3°C 76% 30.33 in
(1027 mb)
NNE 6.9 mph
(NNE 11 kph)
- 7SM
06:55
Clear
43°F / 6°C 37°F / 3°C 81% 30.33 in
(1027 mb)
N 5.8 mph
(N 9 kph)
- 7SM
06:35
Clear
43°F / 6°C 37°F / 3°C 81% 30.3 in
(1026 mb)
NE 4.6 mph
(NE 7 kph)
- 7SM
06:15
Clear
43°F / 6°C 37°F / 3°C 81% 30.3 in
(1026 mb)
N 5.8 mph
(N 9 kph)
- 7SM
05:55
Partly Cloudy
43°F / 6°C 36°F / 2°C 76% 30.3 in
(1026 mb)
N 3.5 mph
(N 6 kph)
- 7SM
05:35
Partly Cloudy
43°F / 6°C 36°F / 2°C 76% 30.3 in
(1026 mb)
NNE 3.5 mph
(NNE 6 kph)
- 7SM
05:15
Mostly Cloudy
43°F / 6°C 36°F / 2°C 76% 30.3 in
(1026 mb)
Calm - 7SM
04:55
Mostly Cloudy
43°F / 6°C 37°F / 3°C 81% 30.3 in
(1026 mb)
N 5.8 mph
(N 9 kph)
- 10SM
04:35
Partly Cloudy
45°F / 7°C 37°F / 3°C 76% 30.27 in
(1025 mb)
NNE 4.6 mph
(NNE 7 kph)
- 10SM
04:15
Overcast
46°F / 8°C 39°F / 4°C 76% 30.27 in
(1025 mb)
Calm - 10SM
03:55
Overcast
48°F / 9°C 37°F / 3°C 66% 30.24 in
(1024 mb)
Calm - 10SM
03:35
Overcast
48°F / 9°C 37°F / 3°C 66% 30.24 in
(1024 mb)
Calm - 10SM
03:15
Overcast
48°F / 9°C 39°F / 4°C 71% 30.24 in
(1024 mb)
NNW 3.5 mph
(NNW 6 kph)
- 10SM
02:55
Overcast
48°F / 9°C 39°F / 4°C 71% 30.24 in
(1024 mb)
NW 3.5 mph
(NW 6 kph)
- 10SM
02:35
Overcast
48°F / 9°C 39°F / 4°C 71% 30.24 in
(1024 mb)
Calm - 10SM
02:15
Partly Cloudy
48°F / 9°C 39°F / 4°C 71% 30.24 in
(1024 mb)
Calm - 10SM
01:55
Partly Cloudy
48°F / 9°C 39°F / 4°C 71% 30.24 in
(1024 mb)
W 3.5 mph
(W 6 kph)
- 10SM
01:35
Clear
50°F / 10°C 39°F / 4°C 67% 30.24 in
(1024 mb)
W 4.6 mph
(W 7 kph)
- 10SM
01:15
Partly Cloudy
48°F / 9°C 41°F / 5°C 76% 30.24 in
(1024 mb)
W 4.6 mph
(W 7 kph)
- 10SM
00:55
Overcast
48°F / 9°C 43°F / 6°C 82% 30.24 in
(1024 mb)
W 3.5 mph
(W 6 kph)
- 10SM
00:35
Overcast
48°F / 9°C 43°F / 6°C 82% 30.27 in
(1025 mb)
Calm - 10SM
00:15
Overcast
46°F / 8°C 43°F / 6°C 87% 30.27 in
(1025 mb)
Calm - 10SM
Time Weather Temperature Dewpoint Humidity Pressure Winds Precip Visibility


Weather for websites

WeatherForYou.com, LLC is not responsible for any damages or problems caused by this service. Current weather conditions are obtained from the closest station including government and personal stations which may have varying degrees of accuracy. Weather forecasts are derived from the NOAA NDFD. Like all things, this site belongs to Jesus Christ... He just trusts me to maintain it. If you have any questions or comments email webmaster@weatherforyou.com

Copyright © 2014, WeatherForYou.com LLC. All rights reserved.